Regional Weather Roundup
Issued by NWS

Home | Current Version | Previous Version | Text Only | Print | Product List | Glossary Off
Versions: 1 2 3 4 5 6 7 8 9 10 11 12 13 14 15 16 17 18 19 20 21 22 23 24 25 26 27 28 29 30 31 32 33 34 35 36 37 38 39 40 41 42 43 44 45 46 47 48 49 50

000
ASUS45 KBOI 032110
RWRID

IDAHO REGIONAL WEATHER ROUNDUP
NATIONAL WEATHER SERVICE BOISE ID
300 PM MDT MON AUG 03 2015

NOTE: "FAIR" INDICATES FEW OR NO CLOUDS BELOW 12000 FEET
WITH NO SIGNIFICANT WEATHER AND/OR OBSTRUCTIONS TO VISIBILITY

IDZ012-014-032200-
SOUTHWEST IDAHO


CITY           SKY/WX    TMP DP  RH WIND       PRES   REMARKS
BOISE          CLOUDY    87  49  26 CALM      29.91F
CALDWELL       CLOUDY    91  46  21 NE7       29.89F
MOUNTAIN HOME  CLOUDY    89  46  21 VRB6      29.90F
$$

IDZ016-017-032200-
SOUTHCENTRAL IDAHO


CITY           SKY/WX    TMP DP  RH WIND       PRES   REMARKS
BURLEY         CLOUDY    80  49  33 W8        30.02S
JEROME         CLOUDY    79  52  38 W7        30.02S
TWIN FALLS     LGT RAIN  81  46  29 SW16G24   30.01R
$$

IDZ019>023-032200-
SOUTHEAST IDAHO


CITY           SKY/WX    TMP DP  RH WIND       PRES   REMARKS
IDAHO FALLS    CLOUDY    73  54  51 S16G26    30.07S
POCATELLO      MOSUNNY   75  51  43 SE13      30.07R
REXBURG        CLOUDY    75  51  43 SW10      30.06S
$$

IDZ006-010-011-018-031-032-032200-
CENTRAL IDAHO MOUNTAINS


CITY           SKY/WX    TMP DP  RH WIND       PRES   REMARKS
MCCALL         CLOUDY    78  39  24 E7        30.04S
HAILEY         CLOUDY    75  54  46 SE8       30.04S
STANLEY          N/A     77  35  21 W8        30.13S
SALMON         CLOUDY    90  46  22 N9        29.81F
CHALLIS        CLOUDY    84  47  27 E7        29.95F
$$

IDZ002-004-006-007-026-032200-
NORTHERN IDAHO


CITY           SKY/WX    TMP DP  RH WIND       PRES   REMARKS
LEWISTON       PTSUNNY   90  37  15 CALM      29.78F
LOWELL           N/A     97  43  15 CALM      29.76F HX  93
COEUR D`ALENE  CLOUDY    84  43  23 W13       29.81S
MULLAN PASS    PTSUNNY   75  28  17 VRB7      30.05R
$$



USA.gov is the U.S. government's official web portal to all federal, state and local government web resources and services.